Lid_Strength_Index
2 2 3 2 2 2 2 3 2 2 2 2 2 2 2 2 3 2 2 3 3 2
3 3 3 2 3 4 3 4 4 4 5 4 4 4 4 5 4 4 3 3 3 4
3 3 3 3 3 3 3 3 3 4 4 5 5 5 5 5 4 5 5 4 4 4
4 3 3 3 3 3 3 4 4 4 4 4 4 4 5 6 6 5 5 4 5 5
3 3 3 3 3 3 3 4 4 3 3 3 4 3 4 5 5 5 5 5 4 5
4 4 4 4 3 3 3 3 3 4 4 4 3 3 3 3 4 4 4 3 3 3
4 4 4 4 4 4 4 4 4 3 3 3 3 3 3 3 3 3 3 2 2 2
5 5 4 4 4 4 4 4 3 3 3 2 3 3 3 3 3 2 2 2 2 2
6 5 5 4 4 4 3 3 3 3 3 3 3 6 6 5 3 3 3 3 3 2
6 6 5 5 4 4 3 3 3 3 2 2 2 6 7 7 4 3 3 2 2 2
6 6 5 5 5 4 3 3 3 3 2 3 4 7 8 8 3 3 2 2 2 2
6 6 6 5 5 4 3 3 3 2 3 4 5 8 9 7 4 3 3 2 2 2
8 7 6 6 5 4 4 4 4 4 5 6 6 8 9 9 7 6 5 4 2 4
7 7 6 6 5 5 5 4 4 5 6 6 7 7 9 10 8 8 6 5 3 1